Satellite: AO-40 Catalog number: 26609 Epoch time: 02063.39179398 Element set: 202 Inclination: 7.2171 deg RA of node: 125.7539 deg Eccentricity: 0.7936835 Arg of perigee: 26.7050 deg Mean anomaly: 358.2386 deg Mean motion: 1.25596753 rev/day Decay rate: -4.02000e-06 rev/day^2 Epoch rev: 617 Checksum: 311